Weather History for KBZN - November, 2012

Change the Weather History Date:

Wednesday, November 7, 2012

  Actual Average Record
Temperature  
Mean Temperature 50 °F 37 °F  
Max Temperature 68 °F 50 °F 72 °F (2006)
Min Temperature 32 °F 23 °F -4 °F (1973)
Degree Days  
Heating Degree Days 15    
Month to date heating degree days 121  
Since 1 July heating degree days 1054  
Cooling Degree Days 0    
Month to date cooling degree days 0  
Year to date cooling degree days 284  
Growing Degree Days 2 (Base 50)    
Moisture  
Dew Point 30 °F    
Average Humidity 49    
Maximum Humidity 77    
Minimum Humidity 21    
Precipitation  
Precipitation 0.01 in 0.02 in 0.40 in (1969)
Month to date precipitation 0.03 0.18  
Year to date precipitation 7.66 12.89  
Snow  
Snow 0.00 in 0.20 in 3.00 in (1946)
Month to date snowfall 0.0 0.8  
Since 1 July snowfall T 3.0  
Since 1 September snowfall T 3.0  
Snow Depth 0.00 in    
Sea Level Pressure  
Sea Level Pressure 29.86 in    
Wind  
Wind Speed 9 mph (SW)    
Max Wind Speed 28 mph    
Max Gust Speed 36 mph    
Visibility 10 miles    
Events      
T = Trace of Precipitation, MM = Missing Value Source: NWS Daily Summary

Daily Weather History Graph

Daily Weather History Graph

Search for Another Location

Airport or City:

Trip Planner

Search our weather history database for the weather conditions in past years. The results will help you decide how hot, cold, wet, or windy it might be!

Date:

Astronomy

Nov. 07, 2012 Rise Set
Actual Time 7:14 AM MST 5:02 PM MST
Civil Twilight 6:42 AM MST 5:33 PM MST
Nautical Twilight 6:06 AM MST 6:09 PM MST
Astronomical Twilight 5:31 AM MST 6:44 PM MST
Moon No Moon Rise 1:32 PM MST (11/7)
Length of Visible Light 10h 51m
Length of Day
9h 48m
Last Quarter, 42% of the Moon is Illuminated
Nov 7
Last Quarter
Nov 13
New
Nov 20
First Quarter
Nov 28
Full
Dec 6
Last Quarter

Hourly Weather History & Observations

Time (MST) Temp. Windchill Dew Point Humidity Pressure Visibility Wind Dir Wind Speed Gust Speed Precip Events Conditions
12:56 AM 36.0 °F - 28.9 °F 76% 29.97 in 10.0 mi Calm Calm - N/A   Clear
1:56 AM 37.9 °F - 28.0 °F 68% 29.94 in 10.0 mi Calm Calm - N/A   Clear
2:56 AM 37.0 °F 31.0 °F 28.0 °F 70% 29.93 in 10.0 mi SE 8.1 mph - N/A   Clear
3:56 AM 35.1 °F 29.3 °F 28.0 °F 76% 29.91 in 10.0 mi SSE 6.9 mph - N/A   Clear
4:56 AM 45.0 °F 43.5 °F 28.0 °F 52% 29.88 in 10.0 mi SE 3.5 mph - N/A   Clear
5:56 AM 39.9 °F 37.8 °F 28.0 °F 63% 29.91 in 10.0 mi ESE 3.5 mph - N/A   Clear
6:56 AM 36.0 °F 33.3 °F 28.0 °F 73% 29.91 in 10.0 mi ENE 3.5 mph - N/A   Clear
7:56 AM 51.1 °F - 33.1 °F 50% 29.89 in 10.0 mi SSE 9.2 mph - N/A   Clear
8:56 AM 54.0 °F - 35.1 °F 49% 29.87 in 10.0 mi Variable 3.5 mph - N/A   Clear
9:56 AM 63.0 °F - 28.0 °F 27% 29.81 in 10.0 mi SW 18.4 mph 26.5 mph N/A   Clear
10:10 AM 62.6 °F - 26.6 °F 26% 29.84 in 10.0 mi SW 19.6 mph 35.7 mph N/A   Clear
10:56 AM 64.0 °F - 27.0 °F 25% 29.81 in 10.0 mi SW 21.9 mph 26.5 mph N/A   Clear
11:56 AM 68.0 °F - 27.0 °F 21% 29.76 in 10.0 mi SW 17.3 mph - N/A   Mostly Cloudy
12:56 PM 66.0 °F - 27.0 °F 23% 29.74 in 10.0 mi SW 19.6 mph 29.9 mph N/A   Mostly Cloudy
1:56 PM 64.9 °F - 27.0 °F 24% 29.72 in 10.0 mi SW 18.4 mph 25.3 mph N/A   Scattered Clouds
2:56 PM 66.0 °F - 28.0 °F 24% 29.71 in 10.0 mi SW 18.4 mph 28.8 mph N/A   Scattered Clouds
3:56 PM 64.0 °F - 28.9 °F 27% 29.74 in 10.0 mi WNW 19.6 mph 25.3 mph N/A   Overcast
4:06 PM 57.2 °F - 35.6 °F 44% 29.78 in 10.0 mi NNW 13.8 mph - N/A   Overcast
4:56 PM 48.9 °F - 41.0 °F 74% 29.80 in 10.0 mi WNW 10.4 mph - 0.01 in   Mostly Cloudy
5:56 PM 48.0 °F - 35.1 °F 61% 29.87 in 10.0 mi NW 11.5 mph - N/A   Overcast
6:56 PM 44.1 °F 41.5 °F 35.1 °F 71% 29.94 in 10.0 mi SW 4.6 mph - N/A   Mostly Cloudy
7:56 PM 43.0 °F - 32.0 °F 65% 29.93 in 10.0 mi Calm Calm - N/A   Mostly Cloudy
8:56 PM 42.1 °F 37.1 °F 28.9 °F 60% 29.94 in 10.0 mi NW 8.1 mph - N/A   Overcast
9:56 PM 42.1 °F 39.2 °F 28.0 °F 58% 29.93 in 10.0 mi NW 4.6 mph - N/A   Overcast
10:56 PM 39.0 °F 34.0 °F 27.0 °F 62% 29.93 in 10.0 mi NNW 6.9 mph - N/A   Mostly Cloudy
11:56 PM 39.2 °F 37.0 °F 26.6 °F 61% 29.96 in 10.0 mi Variable 3.5 mph - N/A   Overcast